DW9615 Home Hill AU current weather conditions

sailwx.info

Wind from 065 at 2 knots gusting 6

Air temperature 25.0° C
Dewpoint 22.1° C

Last reported at 2016-May-05 09:45 UTC.
Time now 2016-May-05 10:27 UTC

Location: S 19°40' E 147°25'.
View on Google Maps.

See reports from other nearby stations

  
Tides and Currents Weather Stations Pressure Air Temp Water Temp Dewpoint Dewpoint Depression Visibility Wind Speed Wind Dir Waves Ship Positions
date/time (UTC)wind fromknots sea level pressurealtimeterstation pressurevisibilityair tempwater tempwave heightnotes
2016-May-05 09:45 065 2 gusting 6 25.0
2016-May-05 09:30 071 1 gusting 6 25.0
2016-May-05 09:15 087 2 gusting 5 25.0
2016-May-05 09:00 073 1 gusting 5 25.6
2016-May-05 08:45 044 2 gusting 6 25.6
2016-May-05 08:30 035 1 gusting 5 25.6
2016-May-05 08:15 062 1 gusting 5 25.6
2016-May-05 08:00 072 1 gusting 7 26.1
2016-May-05 07:45 072 4 gusting 7 26.1
2016-May-05 07:30 048 5 gusting 10 26.7
2016-May-05 07:15 067 2 gusting 10 27.2
2016-May-05 07:00 085 4 gusting 10 27.2
2016-May-05 06:45 094 4 gusting 11 27.2
2016-May-05 06:29 061 4 gusting 13 27.8
2016-May-05 06:14 023 4 gusting 12 27.8
2016-May-05 05:59 044 4 gusting 12 28.3
2016-May-05 05:44 060 5 gusting 8 28.3
2016-May-05 05:29 052 6 gusting 13 28.3
2016-May-05 05:14 052 6 gusting 10 28.3
2016-May-05 04:59 065 5 gusting 13 28.9
2016-May-05 04:47 063 6 gusting 13 28.9
2016-May-05 04:29 062 6 gusting 12 28.9
2016-May-05 04:14 078 5 gusting 10 28.9
2016-May-05 04:00 058 6 gusting 11 28.9
2016-May-05 03:44 031 5 gusting 13 28.9
2016-May-05 03:30 050 5 gusting 12 29.4
2016-May-05 03:18 069 6 gusting 13 29.4
2016-May-05 02:59 035 6 gusting 10 28.9
2016-May-05 02:44 049 4 gusting 12 29.4
2016-May-05 02:31 043 4 gusting 10 28.9
2016-May-05 02:14 096 4 gusting 9 28.9
2016-May-05 02:02 079 3 gusting 8 28.9
2016-May-05 01:44 079 5 gusting 8 29.4
2016-May-05 01:29 108 2 gusting 7 30.0
2016-May-05 01:14 071 3 gusting 10 29.4
2016-May-05 00:59 097 2 gusting 6 28.3
2016-May-05 00:44 067 0 gusting 8 28.3
2016-May-05 00:29 081 3 gusting 9 28.3
2016-May-05 00:14 054 5 gusting 7 28.3
2016-May-04 23:59 084 1 gusting 6 27.8
2016-May-04 23:44 133 3 gusting 7 27.8
2016-May-04 23:29 129 2 gusting 7 27.2
2016-May-04 23:14 100 2 gusting 6 27.2
2016-May-04 22:59 108 2 gusting 6 26.7
2016-May-04 22:44 089 1 gusting 5 26.1
2016-May-04 22:28 118 1 gusting 6 25.6
2016-May-04 22:13 106 0 gusting 5 25.0
2016-May-04 21:58 129 0 gusting 4 23.9
2016-May-04 21:43 170 0 gusting 3 22.8
2016-May-04 21:28 225 21.7
2016-May-04 21:13 225 0 gusting 3 21.1
2016-May-04 20:58 225 20.6
2016-May-04 20:43 225 20.6
2016-May-04 20:28 116 20.6
2016-May-04 20:13 116 20.6
2016-May-04 20:00 116 20.6
2016-May-04 19:43 116 0 gusting 2 20.6
2016-May-04 19:28 114 20.6
2016-May-04 19:13 114 20.6
2016-May-04 18:58 114 20.6
2016-May-04 18:43 114 20.6
2016-May-04 18:28 114 20.6
2016-May-04 18:13 114 20.6
2016-May-04 17:59 114 20.6
2016-May-04 17:43 114 21.1
2016-May-04 17:28 114 21.1
2016-May-04 17:13 114 21.1
2016-May-04 16:58 114 21.1
2016-May-04 16:43 114 21.7
2016-May-04 16:28 114 21.7
2016-May-04 16:15 114 21.1
2016-May-04 15:58 114 21.7
2016-May-04 15:43 114 21.7
2016-May-04 15:30 114 21.7
2016-May-04 15:12 114 21.7
2016-May-04 14:57 114 21.7
2016-May-04 14:42 114 22.2
2016-May-04 14:27 112 22.2
2016-May-04 14:12 112 22.8
2016-May-04 13:57 112 22.8
2016-May-04 13:42 112 22.8
2016-May-04 13:27 112 23.3
2016-May-04 13:12 112 23.3
2016-May-04 12:57 112 23.3
2016-May-04 12:42 112 23.3
2016-May-04 12:27 113 0 gusting 3 23.3
2016-May-04 12:12 124 0 gusting 3 23.3
2016-May-04 11:57 121 0 gusting 3 23.3
2016-May-04 11:42 106 0 gusting 3 23.3
2016-May-04 11:29 133 1 gusting 4 23.3
2016-May-04 11:12 133 2 gusting 4 23.3
2016-May-04 10:57 137 1 gusting 4 23.3
2016-May-04 10:42 146 0 gusting 2 23.9
2016-May-04 10:27 127 1 gusting 4 23.9
2016-May-04 10:12 081 1 gusting 4 23.9
2016-May-04 09:57 131 1 gusting 5 23.9
2016-May-04 09:42 133 3 gusting 7 23.9
2016-May-04 09:27 145 2 gusting 5 24.4
2016-May-04 09:12 138 2 gusting 6 25.0
2016-May-04 08:57 121 0 gusting 6 25.6
2016-May-04 08:42 141 1 gusting 4 25.6
2016-May-04 08:27 095 1 gusting 4 26.1
2016-May-04 08:14 075 0 gusting 2 26.1
2016-May-04 07:57 062 1 gusting 3 26.7
2016-May-04 07:44 073 0 gusting 3 26.7
2016-May-04 07:27 070 2 gusting 6 27.2
2016-May-04 07:12 054 1 gusting 7 27.2
2016-May-04 06:57 042 0 gusting 6 27.8
2016-May-04 06:42 037 1 gusting 6 27.8
2016-May-04 06:27 011 0 gusting 8 28.3
2016-May-04 06:12 042 1 gusting 4 28.9
2016-May-04 05:57 039 1 gusting 4 28.9
2016-May-04 05:42 032 0 gusting 6 28.9
2016-May-04 05:27 052 1 gusting 6 28.9
2016-May-04 05:12 354 3 gusting 6 29.4
2016-May-04 04:57 042 2 gusting 8 30.0
2016-May-04 04:42 043 1 gusting 6 30.0
2016-May-04 04:27 341 2 gusting 7 30.0
2016-May-04 04:12 341 2 gusting 11 30.0
2016-May-04 03:57 030 2 gusting 6 30.0
2016-May-04 03:42 037 1 gusting 6 30.0
2016-May-04 03:27 053 1 gusting 6 30.0
2016-May-04 03:12 039 2 gusting 6 30.0
2016-May-04 02:57 039 1 gusting 5 31.1
2016-May-04 02:41 062 0 gusting 2 31.1
2016-May-04 02:28 064 0 gusting 6 30.6
2016-May-04 02:11 012 1 gusting 4 30.0
2016-May-04 01:56 028 0 gusting 4 30.6
2016-May-04 01:41 129 30.6
2016-May-04 01:26 145 1 gusting 3 30.6
2016-May-04 01:11 354 0 gusting 3 30.0
2016-May-04 00:56 345 1 gusting 3 30.0
2016-May-04 00:41 139 29.4
2016-May-04 00:26 123 1 gusting 3 28.9
2016-May-04 00:11 121 1 gusting 4 28.3
2016-May-03 23:56 103 0 gusting 2 28.3
2016-May-03 23:41 067 27.8
2016-May-03 23:26 069 0 gusting 3 27.8
2016-May-03 23:11 165 1 gusting 3 27.2
2016-May-03 22:56 147 26.7
2016-May-03 22:41 116 26.1
2016-May-03 22:26 116 26.1
2016-May-03 22:11 121 25.6
2016-May-03 21:58 121 24.4
2016-May-03 21:40 121 23.3
2016-May-03 21:25 121 22.2
2016-May-03 21:10 121 22.2
2016-May-03 20:57 121 21.7
2016-May-03 20:40 121 21.7
2016-May-03 20:27 121 21.7
2016-May-03 20:10 191 21.7
2016-May-03 19:55 191 21.1
2016-May-03 19:40 191 21.1
2016-May-03 19:26 191 21.7
2016-May-03 19:10 191 21.7
2016-May-03 18:55 191 21.7
2016-May-03 18:40 191 21.1
2016-May-03 18:25 191 21.1
2016-May-03 18:10 191 21.7
2016-May-03 17:55 191 21.1
2016-May-03 17:40 191 21.7
2016-May-03 17:25 191 0 gusting 2 21.1
2016-May-03 17:10 003 21.1
2016-May-03 16:55 038 21.7
2016-May-03 16:40 038 21.7
2016-May-03 16:25 038 21.7
2016-May-03 16:10 038 21.1
2016-May-03 15:55 038 21.1
2016-May-03 15:40 038 21.1
2016-May-03 15:25 038 21.7
2016-May-03 15:10 038 21.7
2016-May-03 14:55 038 21.7
2016-May-03 14:40 038 21.7
2016-May-03 14:25 038 22.2
2016-May-03 14:10 038 22.8
2016-May-03 13:55 038 22.2
2016-May-03 13:40 038 22.2
2016-May-03 13:25 038 22.2
2016-May-03 13:10 038 22.2
2016-May-03 12:55 038 22.8
2016-May-03 12:40 038 22.8
2016-May-03 12:25 038 22.8
2016-May-03 12:10 038 22.8
2016-May-03 11:55 038 23.3
2016-May-03 11:40 038 23.3
2016-May-03 11:24 038 23.9
2016-May-03 11:09 038 23.9
2016-May-03 10:54 038 0 gusting 1 24.4
2016-May-03 10:39 037 0 gusting 2 24.4
2016-May-03 10:24 037 0 gusting 1 24.4